Temp
87 91 91 90 88 91 90 91 87 86 84 83 82 81 81 77 77 77 78 77 80 78
87 87 86 87 87 91 89 90 87 86 83 82 82 83 80 79 72 74 74 74 78 77
88 88 88 89 87 87 87 87 86 85 86 85 84 82 82 82 78 74 75 74 74 75
89 90 89 90 89 88 87 86 85 85 84 84 85 86 82 80 80 79 78 78 76 73
89 90 91 90 90 90 87 87 86 85 84 84 84 84 85 82 81 79 79 80 79 77
89 89 90 90 89 89 87 86 87 85 83 83 83 83 84 84 82 81 80 79 78 79
87 88 89 89 88 88 86 85 85 84 83 83 83 83 82 81 81 81 83 83 81 79
86 87 87 86 85 85 85 85 84 83 83 83 84 84 78 78 79 80 81 82 83 85
85 85 83 83 83 83 82 82 83 82 82 81 85 69 70 72 78 80 81 81 82 83
84 83 82 82 82 81 80 83 82 82 82 81 82 70 68 69 78 78 80 80 81 83
85 82 82 82 82 80 80 80 79 80 80 80 82 69 66 68 78 79 80 81 81 81
80 80 80 79 79 79 78 78 79 80 79 79 79 69 64 68 77 78 78 80 82 81
79 79 77 77 75 76 77 77 79 76 77 74 77 70 64 69 78 75 78 79 80 68
78 76 78 76 74 74 73 73 73 74 76 77 77 71 61 61 72 72 72 75 78 82
MSLP
1012.34 1011.84 1011.69 1011.75 1012.05 1011.48 1011.45 1011.23 1011.71 1011.66 1011.68 1011.49 1011.27 1011.09 1010.74 1010.60 1010.23 1010.14 1010.19 1010.25 1010.50 1010.74
1012.35 1012.37 1012.38 1012.41 1012.30 1011.77 1011.86 1011.80 1011.88 1011.68 1011.57 1011.45 1011.10 1010.94 1010.92 1010.66 1010.66 1010.43 1010.46 1010.24 1010.40 1010.57
1012.19 1012.25 1012.31 1012.39 1012.37 1012.35 1012.26 1012.16 1011.98 1011.70 1011.38 1011.08 1010.78 1010.78 1010.65 1010.33 1010.77 1010.76 1010.62 1010.59 1010.56 1010.57
1011.81 1012.00 1012.14 1012.06 1012.09 1012.28 1012.25 1012.20 1012.03 1011.86 1011.53 1011.20 1010.65 1010.24 1010.42 1010.40 1010.36 1010.32 1010.26 1010.37 1010.46 1010.50
1011.90 1011.95 1011.89 1011.92 1012.05 1012.10 1012.33 1012.17 1011.92 1011.77 1011.57 1011.33 1010.99 1010.55 1009.99 1009.93 1010.12 1010.15 1009.91 1009.76 1009.79 1010.01
1012.08 1012.11 1011.93 1011.89 1012.10 1012.19 1012.25 1012.19 1011.89 1011.87 1011.68 1011.40 1011.12 1010.70 1010.15 1009.95 1009.84 1009.76 1009.62 1009.59 1009.53 1009.37
1012.26 1012.24 1012.06 1012.09 1012.25 1012.09 1012.28 1012.10 1011.96 1011.96 1011.77 1011.52 1011.19 1010.74 1010.62 1010.61 1010.34 1009.88 1009.25 1008.88 1008.89 1008.92
1012.56 1012.64 1012.58 1012.56 1012.65 1012.51 1012.36 1012.15 1012.06 1011.99 1011.81 1011.60 1011.21 1011.11 1011.27 1011.11 1010.66 1010.04 1009.48 1009.04 1008.66 1008.19
1012.66 1012.89 1012.96 1012.91 1012.85 1012.63 1012.54 1012.36 1011.99 1011.92 1011.84 1011.65 1011.31 1011.53 1011.46 1011.40 1010.87 1010.10 1009.34 1008.70 1008.37 1008.17
1012.78 1012.86 1012.91 1012.88 1012.59 1012.64 1012.55 1012.11 1011.96 1011.80 1011.65 1011.48 1011.30 1011.43 1011.50 1011.48 1011.00 1010.22 1009.34 1008.91 1008.38 1007.91
1012.67 1012.84 1012.80 1012.54 1012.49 1012.49 1012.34 1012.20 1012.05 1011.85 1011.64 1011.38 1011.10 1011.23 1011.36 1011.39 1010.85 1010.02 1009.15 1008.71 1008.46 1007.99
1013.16 1012.94 1012.90 1012.81 1012.78 1012.81 1012.64 1012.36 1011.97 1011.66 1011.51 1011.35 1011.22 1011.25 1011.21 1011.16 1010.67 1009.77 1009.13 1008.57 1007.96 1007.85
1013.52 1013.48 1013.37 1013.41 1013.44 1013.33 1013.03 1012.71 1012.45 1012.25 1012.10 1011.82 1011.41 1011.19 1011.19 1011.15 1010.46 1009.97 1009.36 1008.55 1007.97 1007.85
1013.84 1013.82 1013.42 1013.78 1013.88 1013.75 1013.48 1013.28 1012.86 1012.48 1012.13 1011.68 1011.19 1011.81 1012.14 1012.22 1011.44 1011.15 1010.49 1009.30 1008.33 1007.51
Wind_Speed
2 5 5 2 5 7 6 7 8 9 9 9 9 9 8 8 6 6 7 10 8 6
3 3 7 3 5 6 5 7 9 10 6 8 9 9 9 4 4 5 3 5 8 6
5 2 1 2 2 4 4 6 8 9 10 9 7 6 8 6 4 5 4 3 5 6
4 4 3 2 1 3 4 5 7 8 10 10 11 9 6 7 7 7 7 7 6 5
5 3 4 1 1 3 6 7 8 9 10 10 10 12 10 6 6 7 8 9 9 11
5 5 3 2 1 4 5 8 9 9 10 10 11 11 12 10 10 8 9 9 10 9
2 2 5 5 4 6 9 8 9 9 9 10 11 10 11 12 11 12 13 9 7 9
4 5 5 7 8 8 8 9 8 9 10 11 11 8 9 10 11 11 11 11 12 11
5 5 7 7 9 10 9 10 8 10 10 11 10 7 8 9 12 12 12 10 10 11
6 7 8 9 9 9 8 8 9 10 10 11 12 5 3 7 11 14 11 12 10 12
6 7 8 8 7 8 9 10 10 11 12 11 11 3 1 6 13 12 13 11 12 13
7 8 9 8 9 10 10 11 11 11 12 12 12 8 4 6 12 13 14 13 10 11
7 7 8 8 9 9 11 12 12 13 13 13 12 10 3 6 9 13 13 13 12 10
5 7 7 8 9 10 10 10 10 10 10 11 8 15 18 18 11 12 12 12 12 11
Wind_Direction
114 204 249 158 337 301 331 355 347 338 319 318 322 331 342 352 312 282 247 237 237 235
172 338 9 351 306 17 1 342 4 343 346 330 322 337 332 347 341 0 328 295 279 262
158 189 138 266 333 350 352 5 356 354 351 344 338 326 328 328 314 322 322 320 320 306
169 157 215 186 120 5 6 352 356 355 351 351 345 353 332 309 305 286 280 275 269 273
178 198 155 216 28 9 5 353 347 355 350 348 344 335 343 338 296 275 285 280 266 266
182 205 216 183 316 341 336 335 346 352 347 343 338 331 324 359 347 317 293 287 283 267
211 273 318 360 321 332 341 319 344 343 343 342 335 321 4 345 331 323 321 316 292 283
239 274 301 319 312 308 316 314 334 332 339 339 320 36 10 349 326 321 312 308 309 304
244 306 292 305 301 302 314 296 334 315 325 325 320 42 34 356 328 321 311 318 317 306
256 273 300 303 301 307 301 314 311 315 318 317 320 109 37 356 321 310 326 303 319 312
277 295 295 303 327 326 322 326 323 316 313 312 313 150 54 343 310 316 296 321 309 299
352 354 349 344 339 336 330 318 319 316 330 327 323 322 87 344 315 315 317 301 308 307
3 340 329 339 328 328 325 317 335 325 322 318 320 316 118 345 328 318 315 313 319 31
358 333 328 347 336 328 328 322 317 313 315 291 298 49 41 30 358 352 329 314 306 306